Regional Weather Roundup
Issued by NWS

Home | Current Version | Previous Version | Text Only | Print | Product List | Glossary On
Versions: 1 2 3 4 5 6 7 8 9 10 11 12 13 14 15 16 17 18 19 20 21 22 23 24 25 26 27 28 29 30 31 32 33 34 35 36 37 38 39 40 41 42 43 44 45 46 47 48 49 50
000
ASUS42 KTBW 102016
RWRFL
FLORIDA REGIONAL WEATHER ROUNDUP
NATIONAL WEATHER SERVICE TAMPA BAY RUSKIN FL
300 PM EST WED FEB 10 2016

NOTE: "FAIR" INDICATES FEW OR NO CLOUDS BELOW 12,000 FEET WITH NO
SIGNIFICANT WEATHER AND/OR OBSTRUCTIONS TO VISIBILITY.


FLZ001>010-012>015-112-114-115-102100-
PANHANDLE FLORIDA

CITY           SKY/WX    TMP DP  RH WIND       PRES   REMARKS
PENSACOLA      SUNNY     52  14  22 W9        30.25F
PENSACOLA NAS  SUNNY     53  14  21 W9        30.26F
MILTON NAS     SUNNY     49  15  25 W14G20    30.25F WCI  44
CRESTVIEW      SUNNY     49  11  21 W14G20    30.25F WCI  44
DUKE FIELD     MOSUNNY   50  12  21 W10       30.22F
VALPARAISO     PTSUNNY   51  12  21 NW15      30.23F
MARY ESTHER    SUNNY     51  11  20 W12       30.23F
TRI COUNTY     FAIR      49  15  25 W7        30.23F
PANAMA CITY    FAIR      50  16  25 W12       30.22F
TYNDALL AFB    SUNNY     49  22  34 W18       30.24F WCI  42
APALACHICOLA   SUNNY     50  21  32 W14G23    30.23F WCI  45

STATION/POSITION SKY/WX   TEMP    WIND        PRES    WAVE   SWELL
                          AIR SEA DIR/SP/G            HT/PER HT/PER
                          (F)     (DEG/KT/KT) (MB)    (FT/S) (FT/S)
30.1N   87.6W              47 65  270/ 12/ 16 1024.9F   2/ 3   2/ 8
28.8N   86.0W              52 69  310/ 14/ 19 1024.9F   7/ 8   5/ 8
PANAMA CITY BEAC           44 57  270/ 11/ 16 1024.5F
CAPE SAN BLAS    NOT AVBL
TOWER C          NOT AVBL
28.5N   84.5W              52 67  310/ 19/ 23 1023.8F   8/ 9   5/ 9

$$
FLZ011-016>038-118-127-128-134-139-239-102100-
NORTH FLORIDA

CITY           SKY/WX    TMP DP  RH WIND       PRES   REMARKS
MARIANNA       SUNNY     48  12  23 NW12      30.21F WCI  43
TALLAHASSEE    SUNNY     51   9  18 NW15      30.20F
PERRY          SUNNY     51   7  16 W12       30.20F
LIVE OAK         N/A     52  12  20 W9G21     30.19F
CROSS CITY       N/A     51  21  30 W12G24    30.19S
LAKE CITY      FAIR      50  14  23 W22       30.16S WCI  43
GAINESVILLE    SUNNY     54  13  19 W12       30.15S
WILLISTON      FAIR      57   9  14 W16G24    30.17S
KEYSTONE HEIGH FAIR      54   3  13 NW15G26   30.14S
PALATKA        FAIR      55  14  19 W20G26    30.14R
MAYPORT NAS    SUNNY     50  14  23 W16G24    30.11F WCI  44
JACKSONVILLE   SUNNY     50  12  21 W17G33    30.12F WCI  44
JAX NAS        SUNNY     52   7  16 W18G26    30.14S
JAX CRAIG      SUNNY     50  10  20 W18G25    30.12S WCI  44
JAX CECIL      SUNNY     52  10  19 W18G31    30.14S
FERNANDINA BEA FAIR      52  10  19 W20G25    30.10S
ST AUGUSTINE   SUNNY     54  14  20 W15G28    30.12S

STATION/POSITION SKY/WX   TEMP    WIND        PRES    WAVE   SWELL
                          AIR SEA DIR/SP/G            HT/PER HT/PER
                          (F)     (DEG/KT/KT) (MB)    (FT/S) (FT/S)
SHELL POINT                47     310/ 11/ 17 1021.9
KEATON BEACH               45     280/ 15/ 17 1022.6F
CEDAR KEY        NOT AVBL
FERNANDINA                 45 53  270/ 10/ 17 1019.9
30.7N   81.3W                 55                N/A     3/15   2/15
MAYPORT                    47 55  290/ 16/ 21 1019.6F
31.4N   80.9W              43 53  270/ 19/ 23 1018.7R   3/ 4
ST AUGUSTINE               53 56  290/ 14/ 21 1020.5R

$$
FLZ040-043>046-052-053-057-058-063-144-102100-
INTERIOR CENTRAL FLORIDA

CITY           SKY/WX    TMP DP  RH WIND       PRES   REMARKS
OCALA          SUNNY     55  10  16 S13G25    30.16F
THE VILLAGES     N/A     55  12  18 SW20G25   30.06F
LEESBURG       SUNNY     55  20  25 W20G29    30.17F
SANFORD        SUNNY     59  21  23 W20G31    30.13F
ORLANDO EXEC   SUNNY     61  25  25 NW26G32   30.14F
ORLANDO INTL   MOSUNNY   60  29  30 W16G28    30.15F
KISSIMMEE      MOSUNNY   61  34  36 W16G28    30.16S
WINTER HAVEN   SUNNY     60  36  40 W17G25    30.19S
LAKELAND       SUNNY     59  37  44 W16G24    30.19S
BARTOW         MOSUNNY   57  34  41 W16G25    30.18F
OKEECHOBEE     SUNNY     59  37  44 W13       30.19F

$$
FLZ041-047-054-059-064-141-147-102100-
EAST CENTRAL FLORIDA

CITY           SKY/WX    TMP DP  RH WIND       PRES   REMARKS
ORMOND BEACH   SUNNY     55  18  22 W16G28    30.12F
DAYTONA BEACH  MOSUNNY   58  17  20 W22G33    30.12F
DELAND           N/A     57  10  15 W18G28    30.14S
NEW SMYRNA BEA SUNNY     55  18  22 NW23G35   30.09F
JFK SPACE CTR  SUNNY     60  28  28 W20G28    30.11F
TITUSVILLE     SUNNY     61  25  25 W29G40    30.13F
CAPE CANAVERAL SUNNY     61  32  34 W17G25    30.12F
PATRICK AFB    SUNNY     61  34  35 W20G31    30.13F
MELBOURNE      SUNNY     61  34  36 W14G25    30.14F
VERO BEACH     SUNNY     61  31  32 W14       30.16F
FT PIERCE      SUNNY     59  35  40 W16G25    30.17F
STUART         PTSUNNY   63  37  39 NW12G23   30.19F

STATION/POSITION SKY/WX   TEMP    WIND        PRES    WAVE   SWELL
                          AIR SEA DIR/SP/G            HT/PER HT/PER
                          (F)     (DEG/KT/KT) (MB)    (FT/S) (FT/S)
28.5N   80.2W              56 70  270/ 21/ 27 1020.4F
28.9N   78.5W              58 72              1019.0F
TRIDENT PIER               57 63  240/ 12/ 19 1020.6F
28.4N   80.5W                 63                N/A     2/15   2/15
27.5N   80.2W                 70                N/A     3/14   2/14

$$
FLZ050-056-061-142-242-148-248-149-249-151-251-155-255-
160-260-102100-
WEST CENTRAL FLORIDA

CITY           SKY/WX    TMP DP  RH WIND       PRES   REMARKS
CRYSTAL RIVER  FAIR      50  30  46 W14G23    30.22S WCI  45
INVERNESS      FAIR      52  27  37 NW9G21    30.21R
BROOKSVILLE    SUNNY     54  27  35 W21G26    30.22S
ZEPHYRHILLS    FAIR      56  28  33 W17G26    30.21R
CLEARWATER AIR FAIR      54  36  50 NW15G22   30.22S
ST PETE CLEARW SUNNY     56  37  49 NW16      30.22S
TAMPA INTL     MOSUNNY   56  34  43 W14       30.22S
TAMPA EXEC     SUNNY     59  34  38 NW9G20    30.22R
PLANT CITY     SUNNY     59  37  44 W18G24    30.21S
MACDILL AFB    SUNNY     57  38  50 N15G22    30.21S
PETER O KNIGHT SUNNY     59  41  51 NW12      30.22R
ST PETERSBURG  SUNNY     54  37  52 N12G22    30.20S
SARASOTA       SUNNY     58  39  49 NW18      30.20F
VENICE         FAIR      57  41  54 NW13      30.22F

STATION/POSITION SKY/WX   TEMP    WIND        PRES    WAVE   SWELL
                          AIR SEA DIR/SP/G            HT/PER HT/PER
                          (F)     (DEG/KT/KT) (MB)    (FT/S) (FT/S)
CEDAR KEY        NOT AVBL
28.5N   84.5W              52 67  310/ 19/ 23 1023.8F   8/ 9   5/ 9
27.3N   84.2W                 69                N/A     8/ 9   2/11
CLEARWATER BEACH           51 56  310/ 16/ 20 1023.5F
MIDDLE TAMPA BAY           54     320/ 12/ 13 1023.5F
VENICE                     55 60  310/ 13/ 14 1022.8F

$$
FLZ066-069-070-075>078-162-262-165-265-102100-
SOUTHWEST FLORIDA AND KEYS

CITY           SKY/WX    TMP DP  RH WIND       PRES   REMARKS
PUNTA GORDA    MOSUNNY   63  44  50 N14       30.21S
FT MYERS       MOSUNNY   62  43  49 NW16      30.19S
SOUTHWEST INTL MOSUNNY   63  42  46 NW12      30.19F
NAPLES         MOSUNNY   61  42  49 NW9       30.20F
MARCO ISLAND   MOCLDY    64  39  39 NW13      30.20S
MARATHON       MOSUNNY   65  51  60 N6        30.19F
KEY WEST NAS   CLOUDY    66  52  60 NW7       30.20S
KEY WEST INTL  CLOUDY    68  55  63 N6        30.20F

STATION/POSITION SKY/WX   TEMP    WIND        PRES    WAVE   SWELL
                          AIR SEA DIR/SP/G            HT/PER HT/PER
                          (F)     (DEG/KT/KT) (MB)    (FT/S) (FT/S)
VENICE                     55 60  310/ 13/ 14 1022.8F
NAPLES                        64              1022.8F
26.0N   85.6W              64 79  320/ 17/ 23 1024.2F   8/ 9   5/ 9
DRY TORTUGAS                                    N/A
SAND KEY                   63      20/  6/  9 1022.7F
LONG KEY                   62 65  180/  2/  4 1023.2S
MOLASSES REEF              62 71  300/  5/  6 1022.1F

$$
FLZ067-068-071>074-168-172>174-102100-
SOUTHEAST FLORIDA

CITY           SKY/WX    TMP DP  RH WIND       PRES   REMARKS
W PALM BEACH   PTSUNNY   62  36  37 NW17      30.19F
BOCA RATON     SUNNY    N/A N/A N/A NW13      30.18F
FT LAUDER-EXEC PTSUNNY   61  36  39 W10G18    30.19S
FT LAUDERDALE  PTSUNNY   62  38  40 NW9       30.18F
POMPANO BEACH  PTSUNNY   62  38  40 W8        30.18F
PEMBROKE PINES PTSUNNY   62  37  39 NW9       30.21S
OPA LOCKA      PTSUNNY   63  40  42 NW8       30.20S
MIAMI          PTSUNNY   61  41  47 NW7       30.20S
WEST KENDALL   MOSUNNY   61  43  51 NW7       30.20S
HOMESTEAD      MOSUNNY   64  45  50 NW9       30.18F

STATION/POSITION SKY/WX   TEMP    WIND        PRES    WAVE   SWELL
                          AIR SEA DIR/SP/G            HT/PER HT/PER
                       C1F1M1C2F2M2C3F3C4F4M3C5F5M4C6F6M5C7F7M6C8!


USA.gov is the U.S. government's official web portal to all federal, state and local government web resources and services.